Location: London
(42.9830°N, 81.2500°W)
Time: 11:07:28
(UTC-04:00)

Amateur Radio Satellites - All Passes

Search period start: 30 October 2014 10:37
Search period end: 31 October 2014 10:37
Location: London, 42.9830°N, 81.2500°W

Satellite Date Start Highest point End Downlink Frequencies (MHz)
Time Altitude Azimuth
UKube-1 30 Oct 11:09:16 11:13:39 72° 103° (ESE) 11:17:59 145.840 MHz, 145.915 MHz
ZACube-1 30 Oct 11:16:02 11:19:53 34° 97° (E) 11:23:40 437.345 MHz
ISS 30 Oct 11:28:59 11:32:15 62° 143° (SE) 11:35:33 145.800 FM
HO-68 30 Oct 11:39:52 11:46:32 42° 296° (WNW) 11:53:09 435.675 MHz FM
Sapphire 30 Oct 11:40:45 11:45:49 38° 51° (NE) 11:50:50 437.095 MHz 1200 baud AX-25 AFSK
Oscar 11 30 Oct 11:45:36 11:49:44 46° 288° (WNW) 11:53:51 145.825 FM, Beacon 2401.500 USB
SO-50 30 Oct 11:46:43 11:50:52 38° 116° (ESE) 11:55:08 436.795 FM
FUNcube-1 30 Oct 11:59:01 12:03:14 77° 285° (WNW) 12:07:22 145.950 - 145.970 MHz USB
PCSat 30 Oct 12:02:26 12:07:49 58° 56° (NE) 12:13:09 145.825 MHz
KITSAT 1 30 Oct 12:21:09 12:29:15 82° 302° (WNW) 12:37:23 435.175 FM
Oscar 16 30 Oct 12:25:40 12:27:18 12° 57° (ENE) 12:28:57 437.025 USB, Beacon 2401.1428
JAS-1B 30 Oct 12:28:14 12:30:41 13° 54° (NE) 12:33:09 435.800 - 435.900 CW/SSB
UOSAT-12 30 Oct 12:39:38 12:41:45 13° 108° (ESE) 12:43:53 437.025 FM, 437.400 FM
UKube-1 30 Oct 12:47:24 12:49:15 13° 300° (WNW) 12:51:05 145.840 MHz, 145.915 MHz
ZACube-1 30 Oct 12:52:55 12:56:05 21° 294° (WNW) 12:59:12 437.345 MHz
ITAMSAT 1 30 Oct 13:04:26 13:05:44 11° 56° (NE) 13:07:02 435.822 SSB
ISS 30 Oct 13:06:14 13:09:09 27° 341° (NNW) 13:12:05 145.800 FM
AO-Echo 30 Oct 13:09:06 13:11:50 15° 59° (ENE) 13:14:37 ?
Oscar 19 30 Oct 13:14:41 13:19:07 30° 66° (ENE) 13:23:34 437.125 CW, 437.150 USB
Sapphire 30 Oct 13:24:18 13:29:10 34° 249° (WSW) 13:34:01 437.095 MHz 1200 baud AX-25 AFSK
SO-50 30 Oct 13:27:32 13:31:30 29° 315° (NW) 13:35:35 436.795 FM
PCSat 30 Oct 13:46:48 13:50:46 21° 254° (WSW) 13:54:43 145.825 MHz
AO-27 30 Oct 13:48:09 13:52:29 27° 65° (ENE) 13:56:49 436.795 MHz FM
Gurwin Techsat 1B 30 Oct 13:58:01 14:01:33 19° 61° (ENE) 14:05:06 435.225 FM
Oscar 16 30 Oct 14:00:40 14:05:49 81° 75° (ENE) 14:10:59 437.025 USB, Beacon 2401.1428
TMSAT-1 30 Oct 14:05:37 14:08:46 16° 59° (ENE) 14:11:56 436.925 FM
JAS-1B 30 Oct 14:14:42 14:20:29 89° 76° (ENE) 14:26:15 435.800 - 435.900 CW/SSB
UOSAT-12 30 Oct 14:16:36 14:21:14 77° 305° (NW) 14:25:59 437.025 FM, 437.400 FM
KITSAT 1 30 Oct 14:19:29 14:25:56 25° 326° (NW) 14:32:24 435.175 FM
Uribyol 2 30 Oct 14:31:28 14:36:39 68° 73° (ENE) 14:41:51 436.500 FM
ITAMSAT 1 30 Oct 14:39:06 14:44:18 75° 74° (ENE) 14:49:33 435.822 SSB
ISS 30 Oct 14:44:13 14:46:38 18° 2° (N) 14:49:02 145.800 FM
AO-Echo 30 Oct 14:44:55 14:49:53 78° 257° (WSW) 14:55:04 ?
Oscar 19 30 Oct 14:53:42 14:58:22 34° 263° (W) 15:03:03 437.125 CW, 437.150 USB
Saudisat 1A 30 Oct 14:59:02 15:03:18 45° 50° (NE) 15:07:33 436.775 MHz
AO-7 30 Oct 15:06:34 15:13:09 28° 54° (NE) 15:19:44 29.400 - 29.500 MHz
AO-27 30 Oct 15:26:53 15:31:47 41° 262° (W) 15:36:44 436.795 MHz FM
Gurwin Techsat 1B 30 Oct 15:35:43 15:40:59 65° 258° (WSW) 15:46:18 435.225 FM
TMSAT-1 30 Oct 15:42:45 15:48:03 75° 257° (WSW) 15:53:23 436.925 FM
Oscar 16 30 Oct 15:43:39 15:45:46 12° 271° (W) 15:47:54 437.025 USB, Beacon 2401.1428
UOSAT-12 30 Oct 15:59:28 16:02:11 15° 325° (NW) 16:04:56 437.025 FM, 437.400 FM
JAS-2 30 Oct 16:06:59 16:10:09 14° 50° (NE) 16:13:27 435.800 - 435.900 CW/SSB, 435.910 FM
JAS-1B 30 Oct 16:11:06 16:12:07 10° 273° (W) 16:13:07 435.800 - 435.900 CW/SSB
Uribyol 2 30 Oct 16:13:32 16:16:36 16° 270° (W) 16:19:41 436.500 FM
ISS 30 Oct 16:20:59 16:24:03 32° 22° (NNE) 16:27:06 145.800 FM
KITSAT 1 30 Oct 16:21:18 16:24:51 13° 356° (N) 16:28:25 435.175 FM
ITAMSAT 1 30 Oct 16:21:40 16:24:21 14° 271° (W) 16:27:03 435.822 SSB
Uosat F 30 Oct 16:35:31 16:40:23 53° 71° (ENE) 16:45:18 435.120 FM
Saudisat 1A 30 Oct 16:39:14 16:42:35 21° 248° (WSW) 16:45:56 436.775 MHz
AO-7 30 Oct 16:56:54 17:05:10 76° 254° (WSW) 17:13:30 29.400 - 29.500 MHz
JAS-2 30 Oct 17:47:29 17:53:41 68° 71° (ENE) 18:00:46 435.800 - 435.900 CW/SSB, 435.910 FM
ISS 30 Oct 17:57:37 18:00:49 44° 220° (SW) 18:04:01 145.800 FM
Uosat F 30 Oct 18:15:58 18:19:29 19° 268° (W) 18:23:01 435.120 FM
KITSAT 1 30 Oct 18:18:34 18:24:10 20° 27° (NNE) 18:29:45 435.175 FM
Hamsat 30 Oct 18:27:01 18:31:12 85° 258° (WSW) 18:35:24 145.90 MHz
SO-50 30 Oct 18:38:32 18:39:59 11° 29° (NNE) 18:41:26 436.795 FM
OPAL 30 Oct 18:38:39 18:43:31 54° 103° (ESE) 18:48:20 ?
AO-7 30 Oct 18:55:09 18:59:16 14° 273° (W) 19:03:25 29.400 - 29.500 MHz
AO-40 30 Oct 18:55:36 01:01:42 43° 182° (S) 05:05:48 Beacon 2401.320
STRAND 1 30 Oct 18:56:52 18:58:47 12° 88° (E) 19:00:41 ?
JAS-2 30 Oct 19:34:46 19:39:28 22° 273° (W) 19:44:37 435.800 - 435.900 CW/SSB, 435.910 FM
SO-67 30 Oct 19:56:34 19:59:56 56° 260° (W) 20:03:20 435.3500 MHz FM
KITSAT 1 30 Oct 20:13:31 20:21:30 58° 52° (NE) 20:29:25 435.175 FM
SO-50 30 Oct 20:17:01 20:21:42 48° 50° (NE) 20:26:26 436.795 FM
RS-15 30 Oct 20:18:20 20:26:01 23° 101° (E) 20:33:38 29.354 - 29.394 USB, Beacon 29.352 USB
OPAL 30 Oct 20:18:28 20:22:00 20° 300° (WNW) 20:25:31 ?
HO-68 30 Oct 20:21:56 20:28:12 34° 61° (ENE) 20:34:30 435.675 MHz FM
STRAND 1 30 Oct 20:33:26 20:38:37 83° 285° (WNW) 20:43:44 ?
UOSAT-12 30 Oct 21:06:07 21:09:35 20° 39° (NE) 21:13:01 437.025 FM, 437.400 FM
Oscar 11 30 Oct 21:07:04 21:09:38 16° 63° (ENE) 21:12:13 145.825 FM, Beacon 2401.500 USB
FUNcube-1 30 Oct 21:23:28 21:24:27 11° 60° (ENE) 21:25:25 145.950 - 145.970 MHz USB
Oscar 10/S400 30 Oct 21:39:48 22:21:39 46° 205° (SSW) 05:29:45 145.825 - 145.975 CW/USB, Beacon 145.810 USB
SO-50 30 Oct 21:58:09 22:02:00 24° 248° (WSW) 22:05:53 436.795 FM
UKube-1 30 Oct 22:05:18 22:09:37 70° 74° (ENE) 22:13:59 145.840 MHz, 145.915 MHz
HO-68 30 Oct 22:08:44 22:15:39 51° 260° (W) 22:22:38 435.675 MHz FM
KITSAT 1 30 Oct 22:09:27 22:16:31 35° 252° (WSW) 22:23:34 435.175 FM
ZACube-1 30 Oct 22:13:05 22:17:10 34° 70° (ENE) 22:21:10 437.345 MHz
STRAND 1 30 Oct 22:15:05 22:16:58 12° 303° (WNW) 22:18:51 ?
RS-15 30 Oct 22:25:45 22:36:46 89° 122° (ESE) 22:47:46 29.354 - 29.394 USB, Beacon 29.352 USB
MaSat-1 30 Oct 22:30:21 22:33:50 31° 111° (ESE) 22:37:02 437.345 MHz
Oscar 11 30 Oct 22:41:11 22:45:24 53° 260° (W) 22:49:38 145.825 FM, Beacon 2401.500 USB
UOSAT-12 30 Oct 22:45:31 22:50:14 71° 239° (WSW) 22:54:51 437.025 FM, 437.400 FM
FUNcube-1 30 Oct 22:55:36 23:00:09 88° 257° (WSW) 23:04:38 145.950 - 145.970 MHz USB
UKube-1 30 Oct 23:44:59 23:46:17 11° 270° (W) 23:47:35 145.840 MHz, 145.915 MHz
ZACube-1 30 Oct 23:49:53 23:53:35 24° 265° (W) 23:57:14 437.345 MHz
MaSat-1 31 Oct 00:06:22 00:09:15 21° 304° (NW) 00:11:57 437.345 MHz
RS-15 31 Oct 00:40:59 00:50:38 34° 329° (NNW) 01:00:24 29.354 - 29.394 USB, Beacon 29.352 USB
JAS-1B 31 Oct 01:56:01 02:01:58 26° 95° (E) 02:08:42 435.800 - 435.900 CW/SSB
Oscar 16 31 Oct 02:12:01 02:16:17 26° 95° (E) 02:20:32 437.025 USB, Beacon 2401.1428
Sapphire 31 Oct 02:24:11 02:28:38 27° 108° (ESE) 02:33:07 437.095 MHz 1200 baud AX-25 AFSK
Uribyol 2 31 Oct 02:44:07 02:48:08 22° 93° (E) 02:52:06 436.500 FM
PCSat 31 Oct 02:45:07 02:50:13 44° 113° (ESE) 02:55:21 145.825 MHz
AO-Echo 31 Oct 02:51:27 02:56:16 34° 96° (E) 03:01:01 ?
ITAMSAT 1 31 Oct 02:51:46 02:56:00 25° 94° (E) 03:00:12 435.822 SSB
RS-15 31 Oct 02:59:16 03:07:33 23° 4° (N) 03:16:00 29.354 - 29.394 USB, Beacon 29.352 USB
Oscar 19 31 Oct 03:03:41 03:08:50 78° 103° (ESE) 03:13:57 437.125 CW, 437.150 USB
AO-27 31 Oct 03:38:35 03:43:49 67° 102° (ESE) 03:49:00 436.795 MHz FM
JAS-1B 31 Oct 03:45:53 03:52:49 66° 289° (WNW) 04:01:07 435.800 - 435.900 CW/SSB
Oscar 16 31 Oct 03:51:00 03:55:44 39° 291° (WNW) 04:00:28 437.025 USB, Beacon 2401.1428
Gurwin Techsat 1B 31 Oct 03:51:04 03:56:12 47° 99° (E) 04:01:18 435.225 FM
TMSAT-1 31 Oct 03:57:52 04:02:52 41° 98° (E) 04:07:50 436.925 FM
Sapphire 31 Oct 04:06:36 04:11:48 47° 307° (NW) 04:17:03 437.095 MHz 1200 baud AX-25 AFSK
OPAL 31 Oct 04:18:18 04:21:16 16° 58° (ENE) 04:24:12 ?
Uribyol 2 31 Oct 04:22:51 04:27:50 47° 290° (WNW) 04:32:47 436.500 FM
PCSat 31 Oct 04:29:00 04:33:46 31° 312° (NW) 04:38:35 145.825 MHz
AO-Echo 31 Oct 04:30:14 04:34:57 33° 293° (WNW) 04:39:38 ?
ITAMSAT 1 31 Oct 04:30:44 04:35:39 43° 291° (WNW) 04:40:33 435.822 SSB
Uosat F 31 Oct 04:43:45 04:46:37 15° 90° (E) 04:49:28 435.120 FM
Oscar 19 31 Oct 04:44:45 04:47:32 15° 301° (WNW) 04:50:18 437.125 CW, 437.150 USB
AO-7 31 Oct 04:57:45 05:05:14 35° 97° (E) 05:12:40 29.400 - 29.500 MHz
JAS-2 31 Oct 04:59:35 05:01:35 11° 81° (E) 05:03:34 435.800 - 435.900 CW/SSB, 435.910 FM
RS-15 31 Oct 05:13:40 05:24:01 42° 38° (NE) 05:34:41 29.354 - 29.394 USB, Beacon 29.352 USB
AO-27 31 Oct 05:19:25 05:22:47 18° 300° (WNW) 05:26:08 436.795 MHz FM
Gurwin Techsat 1B 31 Oct 05:31:40 05:35:52 24° 296° (WNW) 05:40:03 435.225 FM
TMSAT-1 31 Oct 05:38:10 05:42:35 28° 295° (WNW) 05:47:00 436.925 FM
JAS-1B 31 Oct 05:39:19 05:42:26 13° 306° (NW) 05:45:46 435.800 - 435.900 CW/SSB
OPAL 31 Oct 05:54:26 05:59:33 75° 255° (WSW) 06:04:37 ?
Sapphire 31 Oct 05:55:14 05:56:39 11° 329° (NNW) 05:58:05 437.095 MHz 1200 baud AX-25 AFSK
Hamsat 31 Oct 06:12:49 06:15:25 16° 91° (E) 06:18:01 145.90 MHz
STRAND 1 31 Oct 06:12:51 06:16:38 21° 62° (ENE) 06:20:25 ?
Uosat F 31 Oct 06:20:50 06:25:52 67° 287° (WNW) 06:30:51 435.120 FM
JAS-2 31 Oct 06:40:15 06:48:04 62° 100° (E) 06:55:36 435.800 - 435.900 CW/SSB, 435.910 FM
Saudisat 1A 31 Oct 06:45:10 06:49:32 79° 122° (ESE) 06:53:57 436.775 MHz
AO-7 31 Oct 06:50:14 06:58:17 55° 296° (WNW) 07:06:19 29.400 - 29.500 MHz
RS-15 31 Oct 07:26:09 07:37:14 72° 243° (WSW) 07:48:49 29.354 - 29.394 USB, Beacon 29.352 USB
Hamsat 31 Oct 07:47:33 07:51:36 46° 288° (WNW) 07:55:39 145.90 MHz
STRAND 1 31 Oct 07:50:25 07:55:25 53° 260° (W) 08:00:29 ?
MaSat-1 31 Oct 08:13:45 08:16:15 65° 62° (ENE) 08:18:35 437.345 MHz
JAS-2 31 Oct 08:25:52 08:32:33 32° 299° (WNW) 08:39:10 435.800 - 435.900 CW/SSB, 435.910 FM
Saudisat 1A 31 Oct 08:26:47 08:29:39 17° 322° (NW) 08:32:31 436.775 MHz
AO-7 31 Oct 08:45:32 08:49:15 14° 318° (NW) 08:52:59 29.400 - 29.500 MHz
SO-67 31 Oct 08:51:37 08:55:00 54° 285° (WNW) 08:58:21 435.3500 MHz FM
HO-68 31 Oct 09:35:33 09:41:47 31° 95° (E) 09:47:58 435.675 MHz FM
RS-15 31 Oct 09:41:33 09:47:34 16° 263° (W) 09:53:43 29.354 - 29.394 USB, Beacon 29.352 USB
PCSat 31 Oct 09:51:13 09:52:15 11° 30° (NNE) 09:53:16 145.825 MHz
UKube-1 31 Oct 09:55:10 09:56:17 11° 89° (E) 09:57:23 145.840 MHz, 145.915 MHz
Oscar 11 31 Oct 10:28:12 10:31:47 25° 95° (E) 10:35:21 145.825 FM, Beacon 2401.500 USB
